Location: Unspecified
(47.6579°N, 23.5637°E)
Time: 11:05:41
(UTC+02:00)

Envisat - Pass Details

Date: 30 November 2021
Orbit: 764 x 766 km, 98.2° (Epoch: 26 January)

Event Time Altitude Azimuth Distance (km) Brightness Sun altitude
Rises 06:39:08 0° 5° (N) 3,246 6.1 -11.9°
Reaches altitude 10° 06:41:42 10° 354° (N) 2,315 5.2 -11.5°
Maximum altitude 06:46:00 28° 297° (WNW) 1,400 3.8 -10.8°
Drops below altitude 10° 06:50:18 10° 239° (WSW) 2,301 5.1 -10.1°
Sets 06:52:51 0° 228° (SW) 3,223 6.0 -9.7°
